Location: Palomar Mountain Lodge
(33.3110°N, 116.8495°W)
Time: 13:23:18
(UTC-07:00)

deb Kosmos-1763 - Pass Details

Date: 12 July 2018
Orbit: 483 x 497 km, 74.0° (Epoch: 20 September)

Event Time Altitude Azimuth Distance (km) Brightness Sun altitude
Rises 21:20:56 0° 343° (NNW) 2,586 8.7 -15.2°
Reaches altitude 10° 21:23:04 10° 344° (NNW) 1,700 7.7 -15.5°
Maximum altitude 21:26:50 87° 69° (ENE) 502 4.0 -16.1°
Enters shadow 21:28:33 31° 162° (SSE) 892 4.9 -16.4°
